Weather in Meskety

Russia / Chechen Republic     43°09′34″N   46°21′35″E
temp.,
°C
wind,
m/s
gust,
m/s
humid.,
%
clouds,
%
prec.,
mm/h
press.,
hPa
HPBL,
m
14 april, wed
wed1400:00+9ssw11834 0.0 101710
03:00+8wsw218996 0.0 101612
06:00+8sw249034 0.0 1017101
09:00+13w5771100 0.0 1017780
12:00+12w4772100 0.1 1017964
15:00+11sw3576100 0.8 1017535
18:00+12sw2274100 0.6 101727
21:00+10sw467899 0.6 101798
15 april, thu
thu1500:00+9sw228297 0.0 101723
03:00+8sw338462 0.0 101743
06:00+8sw38785 0.0 1018165
09:00+15wnw57540 0.0 1017929
12:00+19wnw56420 0.0 10161581
15:00+20nw56345 0.0 10151927
18:00+16nnw224998 0.0 101617
21:00+13ssw225399 0.0 101714
16 april, fri
fri1600:00+12ssw225692 0.0 101716
03:00+11ssw2260100 0.0 101714
06:00+11ssw226371 0.0 101816
09:00+17n2145100 0.0 1018661
12:00+20ne3340100 0.0 10171257
15:00+21ene44365 0.0 10161691
18:00+17ene375341 0.0 1016167
21:00+13se226099 0.0 101729
17 april, sat
sat1700:00+12sw227199 0.1 101714
03:00+11sw227452 0.2 101816
06:00+11sw117383 0.0 101914
09:00+16wnw4457100 0.0 1020750
12:00+19nw3346100 0.0 10201599
15:00+15nw4766100 0.1 1021413
18:00+13w2277100 0.3 102375
21:00+12wsw1189100 1.3 102365
18 april, sun
sun1800:00+12ene1189100 0.1 102275
03:00+10nne1395100 2.5 1022221
06:00+10ne1297100 4.4 1023185
09:00+12e3486100 4.8 1021498
12:00+16ene4568100 0.1 10201071
15:00+18ene546070 0.1 10191212
18:00+14ene4772100 0.0 1020341
21:00+10ese2283100 0.0 102133